Regional Weather Roundup
Issued by NWS

Home | Current Version | Previous Version | Graphics & Text | Print | Product List | Glossary On
Versions: 1 2 3 4 5 6 7 8 9 10 11 12 13 14 15 16 17 18 19 20 21 22 23 24 25 26 27 28 29 30 31 32 33 34 35 36 37 38 39 40 41 42 43 44 45 46 47 48 49 50
000
ASUS45 KCYS 251610
RWRWY

WYOMING REGIONAL WEATHER ROUNDUP
NATIONAL WEATHER SERVICE CHEYENNE WY
1000 AM MDT WED APR 25 2018

NOTE:  "FAIR" INDICATES FEW OR NO CLOUDS BELOW 12,000 FEET
WITH NO SIGNIFICANT WEATHER AND/OR OBSTRUCTIONS TO VISIBILITY.

WYZ001-251700-
YELLOWSTONE NATIONAL PARK

CITY           SKY/WX    TMP DP  RH WIND       PRES   REMARKS
LK YELLOWSTONE   N/A     29  14  53 E3        30.32F
W YELLOWSTONE  NOT AVBL

$$
WYZ002>013-054>058-071-098>099-251700-
NORTHERN WYOMING

CITY           SKY/WX    TMP DP  RH WIND       PRES   REMARKS
JACKSON        FAIR      40  22  48 VRB6      30.33F
CODY           FAIR      54  18  24 VRB3      30.18F
GREYBULL       NOT AVBL
WORLAND        FAIR      47  29  49 CALM      30.20F
SHERIDAN       FAIR      48  30  49 N3        30.10F
BUFFALO        FAIR      51  27  39 SE7       30.12F
GILLETTE       FAIR      56  28  34 S12       30.12F
HULETT         FAIR      52  23  32 SW22      30.14F
NEWCASTLE      FAIR      45  25  45 SE9G21    30.23F

$$
WYZ014>020-022>026-101>103-251700-
CENTRAL WYOMING

CITY           SKY/WX    TMP DP  RH WIND       PRES   REMARKS
BIG PINEY      FAIR      39  20  46 CALM      30.35F
PINEDALE       FAIR      37  21  52 CALM      30.35F
DUBOIS         FAIR      50   5  16 N15G22    30.22F
LANDER         FAIR      43  23  45 E6        30.24F
RIVERTON       FAIR      40  26  57 VRB3      30.25F
CASPER         FAIR      48  23  37 SW23G31   30.25F
DOUGLAS        FAIR      45  25  45 CALM      30.24F

$$
WYZ021-027>030-104>119-251700-
SOUTHERN WYOMING

CITY           SKY/WX    TMP DP  RH WIND       PRES   REMARKS
EVANSTON       FAIR      41  20  43 CALM      30.34S
KEMMERER       FAIR      41  19  42 E3        30.35S
FORT BRIDGER   FAIR      39  22  49 NE5       30.37F
ROCK SPRINGS   FAIR      41  18  39 CALM      30.34F
DIXON          FAIR      39  22  50 SW3       30.41F
RAWLINS        FAIR      41  20  43 W10       30.35F
SARATOGA       FAIR      43  19  39 S6        30.36S
LARAMIE        FAIR      41  21  44 VRB5      30.30F
CHEYENNE       FAIR      44  27  51 VRB3      30.28F
TORRINGTON     FAIR      43  31  62 CALM      30.27F
PINE BLUFFS    FAIR      45  28  53 MISG      30.30F

$$



USA.gov is the U.S. government's official web portal to all federal, state and local government web resources and services.